Temp
12 12 12 12 11 11 11 10 10 11 11 11 12 12 12 12 12 13 13 13 14 14 15 16 16 16 16 16 17 17 18 18 18 18 18 18 18 18 18 18 18 18 18 17 16 16 16 15 15 15 15 14 14 14 14 14 14 14 14 14 14 14 14
12 12 12 12 12 12 11 11 11 11 10 11 12 12 12 12 12 12 13 13 14 14 15 16 16 16 16 16 17 17 17 18 18 18 18 18 18 18 19 19 19 19 18 18 17 17 16 16 16 15 15 15 14 14 14 14 14 14 14 14 14 14 14
13 12 11 11 11 11 12 12 11 11 11 11 11 11 12 11 12 12 13 13 14 14 15 15 16 16 17 17 17 17 18 18 18 18 18 18 19 19 19 19 19 19 19 19 18 17 17 16 16 16 15 15 15 14 14 14 14 14 14 14 14 14 14
12 11 11 11 11 11 11 11 11 12 12 12 11 11 12 12 12 12 12 13 14 14 15 15 16 16 16 17 17 17 18 18 18 18 18 18 19 19 19 19 19 19 19 19 19 18 17 17 17 16 16 15 15 15 15 15 14 14 14 14 14 14 14
11 11 11 11 11 11 11 11 11 11 12 12 12 12 12 13 13 13 12 13 15 15 16 16 17 17 17 17 17 17 18 18 18 18 19 19 19 19 19 19 19 19 19 19 19 19 18 17 17 16 16 16 16 15 15 15 15 14 14 14 14 14 14
11 11 11 12 12 12 12 12 11 12 12 12 12 12 12 12 13 13 13 13 15 15 16 16 17 17 17 17 17 17 17 18 18 18 18 19 19 19 19 19 19 19 19 19 19 19 18 18 17 17 16 16 16 16 15 15 15 15 15 15 14 14 14
11 11 12 12 12 12 12 12 12 12 12 12 12 13 12 12 13 13 13 13 14 15 15 16 16 16 17 17 17 17 17 17 18 18 18 18 19 19 19 19 19 19 19 19 19 19 19 18 18 17 17 17 16 16 16 16 15 15 15 15 15 14 14
11 11 12 12 12 12 12 12 12 12 12 12 13 13 13 13 13 13 13 13 14 14 15 16 16 16 16 17 17 17 17 17 17 18 18 18 18 19 19 19 19 19 19 19 19 19 19 19 18 18 17 17 17 16 16 16 16 16 15 15 15 15 14
10 10 11 11 12 11 11 11 11 11 12 12 12 13 13 13 13 13 13 14 14 15 15 15 16 16 16 16 17 17 17 17 17 18 18 18 18 18 19 19 19 19 19 19 19 19 19 19 19 18 18 18 17 17 16 16 16 16 16 15 15 15 15
9 9 10 11 11 10 10 11 11 11 11 11 12 12 12 12 13 13 14 14 14 14 15 15 15 16 16 16 17 17 17 17 17 17 18 18 18 18 18 18 18 19 19 19 19 19 19 19 19 18 18 18 17 17 17 17 16 16 16 16 15 15 15
8 9 9 9 10 10 10 10 11 11 11 11 11 12 12 12 12 13 13 14 14 14 14 15 15 16 16 16 16 17 17 17 17 17 18 18 18 18 18 18 18 18 19 19 19 19 19 19 19 19 18 18 17 17 17 17 16 16 16 16 16 16 15
7 7 8 8 9 9 9 9 10 10 11 11 11 11 12 12 12 13 13 13 14 14 14 14 15 15 16 16 16 17 17 17 17 18 18 18 18 18 18 18 18 18 18 19 19 19 19 19 19 19 18 18 18 17 17 17 17 16 16 16 16 16 16
5 6 6 6 7 7 8 9 10 10 10 10 10 11 11 11 12 12 13 13 13 14 14 14 15 15 15 16 16 17 17 17 17 17 18 18 18 18 18 18 18 18 19 19 19 19 19 19 19 19 18 18 18 18 17 17 17 17 16 16 16 16 16
4 5 5 5 6 6 7 8 9 10 10 10 10 10 11 11 11 12 12 13 13 13 14 14 14 15 15 15 16 16 16 16 16 17 17 18 18 18 18 18 18 19 19 19 19 19 19 19 19 19 19 18 18 18 18 17 17 17 17 17 16 16 16
4 4 5 5 5 5 6 7 8 9 10 10 10 10 10 10 10 11 12 12 12 13 13 14 14 14 15 15 15 15 16 16 16 16 17 17 17 18 18 18 18 18 18 19 19 19 19 19 20 19 19 19 18 18 18 18 18 17 17 17 17 17 17
3 4 4 5 5 5 6 6 7 8 9 9 10 10 10 10 10 11 12 12 12 13 13 13 14 14 14 15 15 15 16 16 16 16 16 17 17 17 18 18 18 18 18 19 19 19 19 19 20 20 19 19 19 19 18 18 18 18 17 17 17 17 17
3 4 4 4 5 5 6 7 8 8 9 9 9 10 10 10 10 10 11 11 12 13 14 14 14 14 14 15 15 15 16 16 16 16 16 16 17 17 17 17 18 18 18 18 19 19 19 19 20 20 20 20 19 19 19 19 18 18 18 17 17 17 17
3 3 4 4 5 6 7 7 7 8 9 9 9 9 10 10 10 10 11 11 12 13 13 13 14 14 15 15 15 15 16 16 16 16 17 17 17 17 17 17 18 18 18 18 19 19 19 20 20 20 20 20 20 19 19 19 18 18 18 18 18 17 17
2 3 3 4 5 6 7 7 7 8 8 8 9 9 10 10 11 11 11 12 12 13 13 13 14 14 15 15 15 16 16 16 16 17 17 17 17 17 17 17 17 18 18 18 19 19 19 19 20 20 20 20 20 20 19 19 19 19 18 18 18 18 18
2 3 3 4 5 6 6 7 7 8 8 8 8 9 9 10 10 11 11 12 12 13 13 13 14 14 15 15 16 16 16 16 17 17 17 17 17 17 17 17 18 18 18 18 19 19 19 19 20 20 20 20 20 20 20 19 19 19 19 18 18 18 18
2 3 4 4 4 5 6 7 7 7 7 7 8 8 9 10 10 11 11 12 13 13 13 14 14 14 14 15 16 16 16 16 17 17 17 17 17 17 17 17 18 18 18 18 18 18 19 19 19 20 20 20 20 20 20 20 19 19 19 19 18 18 18
1 3 4 4 4 5 6 7 7 7 7 7 7 8 8 9 10 11 11 12 12 13 13 14 14 14 14 15 16 16 16 16 17 17 17 17 17 17 17 17 18 18 18 18 18 18 19 19 19 19 20 20 20 20 20 20 19 19 19 19 19 18 18
1 2 3 4 5 5 5 6 7 7 7 7 7 7 8 9 10 10 11 12 12 13 13 14 14 15 15 15 16 16 16 16 17 17 17 17 17 17 17 17 18 18 18 18 18 18 18 19 19 19 19 20 20 20 20 20 20 19 19 19 19 19 18
-1 1 2 3 4 4 5 5 6 7 7 7 7 7 8 9 10 10 11 12 12 13 13 14 14 15 15 15 16 16 16 16 16 16 17 17 17 17 17 17 18 18 18 18 18 18 18 18 19 19 19 19 20 20 20 20 20 20 19 19 19 19 18
-1 -0 1 2 3 3 4 5 6 7 7 7 7 7 8 8 10 10 11 12 13 13 13 14 14 15 15 15 16 16 16 16 16 16 16 17 17 17 17 17 17 18 18 18 18 18 18 18 18 19 19 19 19 19 19 20 20 20 19 19 19 19 19
-2 -1 0 1 2 3 4 5 5 6 6 6 7 7 8 8 9 10 10 11 12 13 13 14 14 15 15 15 16 16 16 16 16 16 16 16 17 17 17 17 17 17 18 18 18 18 18 18 18 18 18 19 19 19 19 19 19 19 19 19 19 19 18
-2 -1 -1 -0 1 2 4 4 5 6 6 7 7 7 8 8 9 10 10 11 12 13 14 14 14 15 15 15 16 16 16 16 16 16 16 16 16 17 17 17 17 17 17 18 18 18 18 18 18 18 18 19 19 19 19 19 19 19 19 19 19 18 18
-1 -1 -1 -0 1 3 4 4 5 5 6 7 7 7 8 8 8 9 11 11 12 13 13 14 14 15 15 15 15 15 15 15 15 15 16 16 16 16 16 17 17 17 17 17 18 18 18 18 18 18 18 18 18 18 19 18 18 18 18 18 18 18 18
-2 -2 -1 -0 2 3 3 4 4 4 5 6 6 7 8 8 8 9 10 11 12 13 13 14 14 15 15 15 15 14 14 14 15 15 15 15 16 16 16 16 17 17 17 17 17 18 18 18 18 18 18 18 18 18 18 18 18 18 18 18 18 18 18
-3 -2 -2 -0 2 3 2 3 3 4 4 5 6 7 8 8 8 9 10 11 12 12 13 13 14 14 14 14 13 12 13 13 14 14 14 15 15 15 16 16 16 17 17 17 17 17 17 18 17 18 18 18 18 18 18 18 18 18 18 18 18 18 18
-3 -2 -1 -0 1 2 2 2 2 3 4 5 5 6 7 8 8 8 9 10 11 11 12 12 12 11 12 12 12 12 12 13 13 14 14 14 15 15 15 15 16 16 17 17 17 17 17 17 17 17 18 18 18 18 18 18 18 18 18 18 18 18 17
-3 -2 -1 -1 0 1 2 2 2 2 3 4 5 5 6 7 7 7 7 9 9 9 10 10 10 10 10 11 11 12 12 13 13 13 14 14 14 15 15 15 15 15 16 16 17 17 17 17 17 17 17 17 17 17 17 17 17 17 17 17 17 17 17
-3 -2 -0 -0 -0 1 2 1 1 2 3 3 4 5 6 7 7 6 6 7 8 8 9 9 9 10 11 11 12 12 12 13 13 13 13 14 14 14 14 15 15 15 15 16 16 16 16 16 16 16 16 17 17 17 17 17 17 17 17 17 17 17 17
-3 -1 0 -0 -0 0 1 1 2 2 2 3 4 5 5 6 7 6 6 6 7 7 8 8 9 10 10 11 11 12 12 12 13 13 13 13 14 14 14 14 15 15 15 15 15 15 16 16 16 16 16 16 16 16 16 16 16 16 16 16 16 16 16
-2 -0 0 -0 -0 0 1 1 1 2 2 3 3 4 5 6 7 6 5 5 6 6 7 7 8 9 10 11 11 11 12 12 12 12 13 13 13 13 14 14 14 14 14 14 15 15 15 15 15 16 16 16 16 16 16 16 16 16 16 16 16 16 16
-2 -1 -0 -0 0 1 1 1 1 1 2 2 3 3 4 5 6 6 5 5 6 6 7 7 7 8 9 9 10 10 11 11 12 12 12 12 12 13 13 13 13 13 14 14 14 14 14 15 15 15 15 16 16 16 16 16 16 16 16 16 16 16 16
-3 -2 -1 -1 -0 1 1 1 1 1 2 2 2 3 3 4 6 6 6 5 6 6 7 7 7 8 8 8 9 9 10 11 11 12 12 12 12 13 13 13 13 13 13 13 14 14 14 14 14 15 15 15 15 15 15 15 15 15 15 15 16 16 16
Height
3080 3084 3087 3090 3094 3096 3097 3101 3101 3099 3103 3108 3110 3110 3110 3112 3111 3106 3103 3100 3097 3099 3098 3098 3102 3104 3106 3110 3111 3114 3117 3119 3121 3122 3124 3126 3126 3128 3130 3131 3133 3135 3137 3139 3141 3144 3146 3147 3149 3151 3152 3154 3155 3158 3160 3162 3165 3166 3167 3169 3172 3174 3177
3078 3081 3085 3088 3091 3091 3093 3095 3094 3098 3105 3108 3109 3109 3108 3110 3107 3101 3098 3097 3098 3099 3094 3093 3098 3101 3103 3106 3108 3111 3113 3116 3118 3119 3121 3122 3123 3125 3127 3128 3130 3131 3133 3136 3138 3140 3142 3144 3146 3148 3150 3152 3154 3156 3158 3160 3162 3163 3165 3167 3169 3171 3174
3075 3078 3082 3085 3087 3089 3091 3091 3092 3096 3101 3101 3104 3105 3103 3103 3102 3097 3095 3094 3094 3093 3090 3091 3095 3098 3101 3103 3105 3108 3110 3112 3115 3116 3118 3119 3121 3123 3123 3125 3127 3128 3130 3132 3134 3137 3138 3141 3143 3145 3148 3150 3151 3154 3155 3157 3159 3161 3163 3165 3167 3169 3171
3073 3075 3077 3079 3081 3085 3088 3089 3090 3093 3094 3094 3096 3097 3096 3097 3097 3095 3093 3091 3086 3084 3086 3090 3093 3096 3099 3101 3103 3105 3107 3109 3111 3113 3116 3117 3118 3120 3121 3122 3124 3125 3128 3129 3131 3133 3135 3137 3140 3143 3145 3146 3148 3151 3152 3155 3157 3158 3160 3162 3163 3166 3168
3069 3069 3070 3073 3076 3079 3081 3084 3086 3088 3090 3091 3092 3093 3093 3094 3094 3093 3092 3087 3081 3080 3083 3086 3090 3093 3096 3098 3100 3102 3104 3106 3108 3110 3112 3114 3116 3117 3118 3120 3121 3123 3125 3126 3127 3129 3131 3134 3136 3139 3141 3142 3145 3147 3149 3152 3154 3155 3157 3158 3161 3163 3165
3064 3065 3067 3071 3074 3074 3075 3077 3079 3082 3085 3087 3089 3089 3089 3091 3090 3089 3090 3084 3079 3080 3082 3084 3088 3091 3093 3095 3097 3098 3100 3102 3105 3107 3109 3111 3113 3115 3116 3117 3119 3120 3121 3123 3124 3125 3127 3129 3132 3135 3136 3139 3142 3144 3146 3149 3150 3152 3154 3155 3158 3160 3163
3062 3064 3067 3070 3071 3072 3073 3074 3075 3078 3081 3082 3084 3083 3084 3087 3087 3087 3089 3084 3077 3077 3080 3083 3087 3089 3091 3094 3095 3096 3098 3099 3102 3104 3107 3109 3111 3113 3113 3114 3116 3117 3118 3120 3121 3122 3123 3125 3128 3130 3132 3135 3138 3140 3143 3145 3146 3149 3151 3153 3155 3158 3160
3062 3064 3066 3067 3068 3069 3070 3071 3073 3075 3076 3078 3080 3080 3081 3083 3083 3086 3089 3082 3075 3076 3079 3082 3085 3088 3090 3092 3093 3095 3096 3097 3099 3101 3104 3106 3109 3110 3111 3112 3114 3114 3115 3117 3118 3119 3120 3122 3124 3126 3128 3130 3133 3136 3139 3141 3143 3146 3148 3150 3152 3155 3157
3061 3063 3063 3063 3063 3064 3065 3067 3069 3071 3073 3077 3078 3079 3080 3080 3079 3083 3083 3076 3073 3076 3079 3082 3085 3087 3089 3091 3092 3094 3095 3096 3097 3099 3101 3103 3105 3107 3109 3110 3111 3112 3113 3114 3115 3116 3117 3118 3120 3122 3124 3126 3129 3131 3134 3137 3140 3143 3145 3147 3149 3151 3153
3051 3053 3053 3053 3056 3058 3060 3063 3065 3067 3070 3074 3075 3076 3076 3075 3076 3078 3075 3071 3072 3076 3078 3081 3084 3086 3088 3090 3092 3093 3094 3095 3096 3097 3099 3101 3102 3104 3105 3107 3108 3109 3110 3112 3113 3113 3114 3115 3116 3118 3120 3122 3125 3127 3130 3133 3136 3138 3141 3143 3145 3147 3149
3044 3045 3046 3049 3052 3054 3056 3059 3061 3063 3066 3068 3071 3071 3070 3070 3073 3071 3067 3069 3073 3073 3076 3080 3083 3086 3088 3089 3091 3092 3092 3094 3095 3097 3098 3099 3100 3102 3103 3104 3105 3106 3107 3109 3110 3111 3112 3112 3113 3115 3117 3119 3121 3124 3126 3129 3131 3134 3137 3139 3141 3143 3145
3042 3044 3045 3048 3050 3051 3053 3055 3057 3060 3062 3063 3065 3065 3064 3068 3069 3064 3064 3069 3070 3069 3074 3079 3081 3085 3087 3088 3090 3091 3091 3092 3093 3095 3097 3098 3099 3100 3101 3102 3103 3104 3105 3106 3108 3109 3110 3110 3111 3113 3114 3116 3118 3121 3123 3125 3128 3130 3133 3135 3137 3139 3141
3041 3043 3045 3046 3047 3048 3050 3051 3053 3055 3057 3058 3058 3059 3061 3064 3063 3061 3065 3068 3066 3067 3073 3077 3080 3083 3085 3087 3089 3089 3089 3090 3091 3093 3095 3096 3097 3098 3098 3100 3101 3102 3103 3104 3105 3106 3107 3108 3108 3110 3112 3114 3116 3118 3120 3122 3125 3127 3130 3132 3134 3136 3137
3040 3041 3043 3044 3045 3046 3046 3047 3049 3051 3052 3054 3054 3055 3058 3060 3060 3061 3064 3065 3064 3067 3071 3074 3077 3080 3082 3083 3085 3085 3086 3087 3089 3091 3092 3093 3095 3095 3096 3097 3098 3100 3101 3102 3102 3103 3104 3105 3106 3108 3110 3111 3113 3115 3117 3119 3121 3124 3126 3128 3130 3132 3133
3039 3040 3042 3042 3043 3043 3043 3044 3045 3047 3048 3050 3050 3052 3055 3056 3058 3060 3062 3061 3060 3064 3068 3071 3074 3076 3078 3078 3080 3081 3083 3084 3086 3088 3089 3091 3092 3093 3094 3095 3095 3097 3098 3099 3100 3101 3102 3103 3104 3105 3107 3109 3111 3113 3114 3116 3118 3121 3123 3125 3126 3128 3129
3038 3039 3040 3040 3040 3041 3040 3040 3041 3043 3044 3045 3047 3049 3052 3054 3056 3058 3059 3058 3058 3061 3066 3068 3070 3072 3074 3074 3075 3077 3079 3081 3083 3084 3086 3087 3088 3089 3091 3091 3092 3093 3094 3095 3097 3098 3099 3100 3101 3102 3104 3105 3107 3109 3111 3113 3115 3117 3119 3121 3123 3125 3126
3037 3038 3039 3039 3039 3039 3037 3035 3037 3040 3041 3042 3044 3046 3049 3051 3054 3055 3056 3056 3056 3059 3063 3065 3067 3069 3070 3070 3072 3074 3075 3078 3079 3080 3082 3083 3084 3086 3087 3088 3089 3090 3091 3092 3093 3094 3095 3097 3098 3099 3100 3101 3103 3106 3108 3110 3111 3113 3116 3118 3120 3122 3123
3036 3036 3037 3039 3039 3035 3031 3031 3034 3036 3038 3039 3040 3042 3045 3048 3050 3051 3052 3053 3054 3057 3060 3062 3064 3066 3066 3067 3069 3071 3072 3074 3075 3077 3078 3079 3081 3082 3083 3084 3085 3086 3087 3088 3089 3091 3092 3093 3095 3096 3097 3098 3100 3102 3104 3105 3107 3110 3112 3115 3117 3119 3120
3036 3036 3038 3039 3034 3028 3027 3029 3031 3033 3035 3036 3037 3039 3042 3044 3046 3047 3048 3049 3052 3054 3056 3059 3061 3063 3063 3064 3065 3067 3069 3070 3071 3073 3074 3075 3077 3078 3079 3080 3081 3082 3084 3085 3086 3087 3089 3090 3091 3092 3093 3095 3097 3098 3100 3102 3104 3107 3109 3111 3113 3115 3117
3034 3035 3036 3033 3027 3024 3026 3028 3028 3030 3032 3033 3034 3036 3039 3041 3042 3042 3043 3046 3049 3051 3053 3055 3058 3059 3059 3059 3060 3062 3065 3066 3067 3069 3070 3072 3073 3074 3075 3076 3077 3078 3080 3081 3083 3084 3085 3086 3088 3089 3091 3092 3093 3095 3097 3099 3101 3104 3105 3107 3109 3111 3113
3031 3032 3031 3027 3024 3023 3023 3025 3027 3029 3030 3031 3031 3033 3035 3036 3037 3038 3040 3043 3046 3048 3050 3052 3054 3055 3056 3054 3055 3057 3061 3063 3064 3065 3067 3068 3069 3071 3072 3073 3074 3075 3076 3078 3080 3081 3082 3084 3085 3086 3087 3088 3089 3091 3093 3095 3098 3100 3101 3103 3106 3108 3110
3028 3029 3028 3025 3023 3021 3019 3022 3026 3027 3028 3029 3029 3029 3030 3032 3033 3034 3037 3040 3043 3046 3048 3049 3050 3052 3051 3049 3051 3056 3058 3059 3061 3062 3064 3065 3066 3067 3069 3070 3071 3072 3073 3075 3076 3078 3079 3081 3081 3082 3084 3085 3086 3088 3090 3092 3094 3096 3097 3100 3102 3104 3106
3025 3026 3024 3020 3018 3017 3017 3021 3025 3026 3027 3028 3027 3027 3026 3027 3029 3031 3034 3038 3040 3042 3045 3047 3047 3047 3045 3046 3051 3055 3056 3056 3058 3059 3060 3062 3063 3064 3066 3067 3068 3069 3071 3072 3073 3075 3076 3077 3078 3079 3080 3081 3083 3085 3087 3089 3090 3092 3094 3097 3099 3100 3101
3021 3023 3021 3017 3015 3016 3017 3020 3024 3025 3026 3026 3027 3026 3023 3023 3025 3028 3031 3034 3037 3039 3042 3043 3044 3043 3042 3045 3050 3052 3052 3053 3054 3055 3056 3058 3059 3061 3063 3064 3065 3066 3067 3069 3070 3072 3073 3075 3076 3076 3077 3079 3080 3082 3083 3085 3087 3089 3091 3093 3094 3095 3095
3019 3020 3018 3015 3013 3013 3016 3019 3022 3024 3025 3025 3024 3022 3021 3023 3025 3025 3028 3031 3033 3035 3038 3039 3041 3041 3041 3043 3046 3048 3048 3049 3050 3051 3052 3053 3055 3057 3059 3061 3062 3063 3065 3066 3067 3069 3070 3072 3073 3074 3075 3076 3077 3078 3080 3082 3084 3085 3086 3087 3088 3089 3090
3016 3017 3016 3014 3011 3011 3014 3018 3021 3023 3023 3022 3019 3019 3021 3023 3024 3024 3027 3029 3030 3032 3034 3035 3037 3038 3039 3040 3042 3043 3045 3046 3047 3048 3049 3050 3051 3053 3056 3058 3059 3061 3062 3063 3065 3066 3067 3069 3070 3072 3073 3074 3074 3075 3077 3078 3079 3081 3081 3082 3084 3085 3087
3013 3014 3013 3012 3009 3009 3012 3016 3019 3021 3020 3017 3016 3019 3021 3021 3021 3022 3024 3026 3028 3029 3031 3032 3033 3034 3035 3036 3038 3039 3041 3042 3043 3045 3046 3047 3048 3049 3052 3054 3056 3058 3060 3061 3062 3063 3065 3066 3067 3069 3070 3071 3072 3073 3074 3075 3076 3078 3079 3080 3081 3082 3083
3008 3008 3006 3005 3005 3008 3012 3014 3015 3016 3016 3015 3016 3018 3019 3019 3019 3020 3020 3022 3024 3026 3027 3028 3029 3030 3032 3033 3034 3035 3037 3038 3040 3041 3043 3044 3045 3047 3048 3050 3053 3055 3057 3058 3059 3061 3062 3063 3064 3066 3067 3068 3069 3071 3072 3073 3074 3075 3076 3077 3078 3078 3080
3002 3001 3000 3001 3005 3008 3010 3010 3010 3012 3013 3014 3014 3016 3018 3018 3017 3017 3017 3018 3020 3022 3023 3024 3025 3027 3028 3029 3030 3031 3033 3035 3037 3038 3040 3041 3043 3044 3046 3047 3049 3051 3053 3055 3057 3058 3059 3060 3061 3063 3064 3065 3066 3068 3069 3070 3072 3073 3074 3075 3075 3076 3077
2999 2997 2997 3001 3004 3006 3006 3007 3008 3010 3011 3012 3013 3014 3016 3016 3015 3014 3014 3015 3016 3018 3019 3020 3021 3023 3024 3025 3027 3029 3031 3032 3034 3036 3037 3039 3040 3042 3043 3045 3046 3048 3050 3052 3053 3055 3056 3057 3058 3060 3061 3062 3063 3065 3066 3067 3068 3069 3070 3072 3072 3073 3074
2997 2995 2996 2999 3001 3001 3002 3004 3005 3008 3009 3011 3011 3012 3013 3014 3013 3012 3012 3012 3013 3014 3015 3016 3018 3020 3022 3023 3024 3026 3028 3030 3032 3033 3035 3036 3038 3039 3041 3042 3044 3045 3047 3048 3050 3052 3053 3055 3056 3057 3058 3059 3060 3062 3063 3064 3065 3066 3067 3068 3069 3070 3071
2993 2992 2994 2997 2997 2997 2999 3000 3002 3004 3006 3008 3009 3010 3011 3012 3012 3011 3010 3010 3010 3011 3012 3013 3015 3017 3020 3021 3022 3024 3026 3027 3029 3031 3032 3034 3035 3036 3038 3039 3041 3042 3044 3045 3047 3049 3050 3051 3053 3054 3055 3056 3057 3058 3059 3060 3061 3062 3063 3064 3065 3066 3067
2988 2989 2992 2994 2994 2994 2996 2998 3000 3002 3004 3006 3008 3008 3009 3010 3011 3010 3009 3008 3009 3009 3010 3011 3013 3014 3017 3019 3021 3022 3024 3025 3027 3028 3030 3031 3032 3033 3035 3036 3038 3039 3041 3042 3044 3045 3046 3047 3049 3050 3051 3052 3053 3054 3055 3056 3057 3058 3059 3060 3061 3062 3063
2984 2986 2990 2992 2991 2991 2992 2996 2998 2999 3001 3005 3006 3006 3006 3007 3009 3010 3009 3007 3007 3008 3008 3010 3011 3012 3014 3016 3018 3020 3021 3022 3024 3025 3027 3028 3029 3030 3031 3033 3034 3036 3037 3039 3040 3041 3042 3044 3045 3046 3047 3049 3050 3051 3052 3053 3054 3054 3055 3056 3057 3058 3059
2980 2983 2986 2986 2986 2986 2988 2992 2994 2994 2996 3001 3003 3003 3003 3004 3006 3008 3008 3006 3005 3006 3007 3008 3009 3010 3011 3012 3014 3017 3018 3020 3021 3022 3024 3026 3027 3027 3028 3029 3031 3032 3034 3035 3037 3038 3039 3040 3042 3043 3044 3045 3046 3047 3048 3049 3050 3051 3051 3052 3053 3054 3054
2975 2978 2980 2981 2981 2982 2985 2988 2990 2990 2991 2996 3000 3001 3001 3001 3002 3005 3007 3005 3004 3005 3006 3007 3008 3009 3009 3010 3012 3014 3015 3016 3018 3019 3021 3022 3024 3025 3025 3026 3027 3029 3031 3033 3034 3035 3036 3037 3038 3040 3041 3042 3043 3044 3045 3046 3046 3047 3048 3048 3049 3049 3050
2971 2972 2974 2975 2976 2979 2982 2984 2986 2987 2988 2991 2996 2999 2999 2998 2999 3002 3004 3005 3005 3005 3006 3006 3006 3007 3008 3009 3010 3012 3013 3014 3015 3016 3018 3019 3021 3022 3023 3024 3025 3027 3028 3030 3031 3032 3033 3034 3035 3036 3037 3038 3039 3039 3040 3041 3042 3042 3043 3044 3044 3044 3044
Wind_Speed
36 33 31 32 28 23 24 28 32 32 30 27 16 7 5 5 5 7 14 19 20 18 22 25 22 20 20 21 24 27 28 28 26 27 25 22 19 17 16 16 16 17 21 27 31 32 32 32 31 29 28 28 28 28 29 30 30 31 32 33 33 32 32
26 30 30 29 29 28 25 27 31 28 22 23 20 11 6 7 7 7 13 19 19 16 20 25 26 27 27 27 29 30 29 28 26 26 25 22 18 16 16 17 17 17 17 21 28 32 33 32 31 31 30 29 28 27 27 28 28 29 29 30 31 31 32
22 26 29 26 29 32 29 27 27 23 16 18 22 15 6 8 8 5 8 14 18 23 23 17 16 19 22 25 27 29 31 32 30 28 26 22 18 17 17 17 16 15 13 15 20 27 32 33 32 31 31 31 30 29 28 27 26 27 28 29 30 30 31
19 24 30 29 30 33 33 28 23 22 18 16 24 23 11 7 7 5 4 7 15 27 34 31 26 23 20 21 23 25 28 31 31 30 29 24 19 18 17 16 15 14 12 13 15 20 26 30 32 31 32 33 33 31 30 29 28 28 29 30 30 30 31
20 25 32 32 32 36 37 31 24 25 23 14 18 25 20 11 6 4 5 6 7 10 15 19 22 23 23 24 26 27 28 27 26 27 29 27 21 18 19 18 16 15 15 14 14 16 19 25 30 32 34 35 34 33 32 30 30 30 29 29 29 29 30
22 25 26 26 27 33 36 35 31 31 28 19 12 15 21 21 13 6 5 8 8 5 3 2 2 4 10 14 17 22 24 23 21 20 22 26 24 20 20 20 17 18 17 13 11 13 16 20 25 30 35 35 35 35 33 31 32 32 31 31 29 27 27
20 21 22 22 24 31 35 36 37 35 31 28 18 10 17 23 19 13 8 10 12 12 13 13 9 8 9 11 11 12 16 18 18 17 17 21 24 23 23 23 22 23 20 14 10 11 15 17 20 24 30 34 35 35 34 33 34 33 32 32 30 28 27
17 18 21 24 27 33 36 36 36 33 32 33 29 22 21 20 18 16 10 10 11 7 5 3 4 5 6 6 6 6 9 14 18 19 19 19 22 25 25 25 25 26 23 17 13 11 14 17 20 21 24 29 32 34 35 35 34 33 32 32 31 30 29
14 15 17 22 27 30 33 33 33 31 32 34 34 30 26 20 20 22 16 10 7 6 4 3 2 4 5 5 5 5 6 7 12 18 21 21 21 22 23 24 26 26 23 18 13 10 13 18 22 24 23 26 29 32 33 33 33 33 33 33 31 30 29
11 11 12 18 23 24 26 29 32 32 32 33 32 30 24 19 21 27 27 17 7 8 10 7 6 7 6 6 5 5 5 4 6 11 17 20 21 22 22 23 23 23 22 18 13 10 12 17 23 25 26 27 29 30 30 30 31 32 33 33 32 31 30
11 8 10 18 25 24 22 24 28 30 31 32 33 31 25 23 25 30 38 34 21 19 19 13 12 11 9 10 9 8 7 6 7 8 11 14 18 22 24 25 24 23 23 22 18 12 12 17 21 23 25 27 29 30 31 30 31 32 32 32 32 32 31
15 12 12 17 24 26 23 24 26 26 26 30 35 33 26 26 27 28 38 43 39 37 34 25 20 16 14 14 12 10 11 9 8 8 9 10 12 16 20 22 22 23 24 25 21 16 13 16 21 23 24 27 29 30 31 31 31 31 31 32 33 33 32
13 14 13 12 16 20 22 25 28 28 27 27 31 35 32 29 27 26 32 39 41 44 42 37 33 28 24 22 16 12 16 15 12 10 11 12 11 12 14 16 17 19 22 24 23 20 15 15 21 24 24 26 29 31 31 31 31 30 31 32 32 33 34
9 10 12 12 12 15 19 23 27 31 32 30 29 33 34 33 31 31 32 33 35 37 37 37 37 33 32 32 28 26 26 25 22 18 17 16 12 9 8 9 11 14 18 22 24 23 19 14 17 23 26 27 29 31 32 32 32 32 32 32 33 34 35
10 10 9 10 11 13 18 23 26 30 33 34 33 31 31 32 31 35 39 39 39 38 34 34 35 33 33 34 34 35 34 32 29 25 23 21 17 13 10 9 10 11 14 20 24 25 22 16 15 20 26 29 29 30 32 33 33 33 32 33 33 35 36
12 12 11 12 13 15 19 24 28 30 31 33 33 32 32 31 28 30 35 36 39 40 36 34 34 33 32 32 32 32 32 31 30 29 28 27 24 21 19 16 15 13 13 17 22 25 24 20 17 19 24 29 31 31 31 32 33 32 32 32 33 34 36
11 13 14 13 13 14 16 22 29 32 33 34 33 32 33 31 28 28 26 26 33 37 35 32 32 32 32 32 30 29 28 28 30 31 31 30 28 26 24 21 19 17 15 15 20 24 25 23 21 20 23 28 31 33 32 31 32 32 31 31 32 33 34
8 13 16 14 12 10 9 13 21 27 31 35 36 35 35 34 32 31 28 29 34 35 30 27 26 27 31 32 31 29 27 27 28 30 30 30 29 27 25 23 20 20 18 16 19 22 24 24 23 22 23 26 29 33 34 33 32 31 30 29 29 30 31
8 12 13 9 9 10 9 10 14 17 18 22 26 30 33 35 36 38 38 37 35 33 28 24 20 20 24 28 29 28 25 25 26 27 28 29 28 26 24 23 22 22 21 18 19 21 23 25 25 24 24 26 27 30 33 33 33 31 29 28 28 29 30
8 7 9 9 6 5 10 12 11 11 12 13 15 18 21 25 29 34 38 39 38 36 34 31 26 22 22 24 26 27 25 23 24 25 26 27 26 25 24 23 22 24 23 19 18 20 23 25 26 25 24 27 29 29 29 31 31 30 30 29 29 29 29
12 10 14 18 15 12 16 18 11 10 12 12 12 14 16 21 25 27 28 28 30 32 33 35 34 30 27 27 26 25 24 23 24 24 24 25 24 23 22 22 23 26 25 20 17 18 20 22 24 25 25 28 31 31 29 29 28 29 29 29 30 30 29
14 13 13 14 14 15 21 24 20 16 14 12 12 15 17 22 27 28 28 25 22 22 23 27 31 32 34 34 26 20 21 22 22 22 22 23 23 22 20 19 22 27 27 22 18 17 18 20 22 25 26 28 31 32 31 29 29 30 31 30 30 31 31
13 15 14 13 12 9 9 15 20 18 15 13 13 16 17 22 26 27 29 28 26 25 23 22 24 30 37 36 25 17 19 21 21 21 21 21 21 22 20 18 19 25 28 25 22 20 19 18 20 23 26 28 30 32 32 30 30 31 32 31 31 33 34
17 17 16 16 16 11 6 10 15 16 14 13 12 9 7 11 16 19 21 25 28 28 26 24 24 27 33 33 25 20 21 22 22 22 22 21 21 21 21 19 18 21 26 27 26 23 22 20 19 20 23 26 28 30 31 31 31 29 29 31 33 34 36
21 20 18 17 18 16 15 16 18 20 19 16 13 11 7 6 10 12 12 16 22 25 27 27 26 26 27 27 25 25 26 25 24 23 22 22 21 21 21 20 19 19 21 23 24 25 24 23 21 21 21 23 25 27 29 31 30 29 28 30 33 35 36
20 21 20 17 17 18 19 20 19 22 22 19 17 18 17 16 19 19 15 14 16 19 23 26 28 28 26 25 25 27 28 27 26 25 24 23 22 21 21 22 21 20 19 20 22 24 25 24 23 23 23 22 23 25 27 28 29 30 30 30 32 34 35
19 20 18 13 12 13 14 16 19 22 26 27 26 25 23 21 22 22 22 21 18 18 20 22 25 27 27 27 28 28 29 29 28 27 26 24 23 23 22 23 23 22 21 20 21 24 26 26 26 26 26 25 24 23 24 25 26 28 28 28 29 31 33
18 19 18 18 17 10 6 12 19 24 28 31 30 27 25 25 24 22 22 23 22 21 22 23 24 25 27 29 31 30 30 30 28 28 27 26 26 25 24 25 24 23 23 22 22 24 27 29 30 30 29 28 27 25 25 25 24 25 26 27 28 29 31
19 18 20 23 21 12 10 17 19 20 25 29 29 27 24 24 25 25 24 24 23 22 23 25 26 27 29 31 31 29 28 28 28 29 29 28 28 27 27 27 26 25 25 24 23 24 27 30 32 33 33 31 29 28 28 27 27 26 26 27 28 29 31
21 22 25 28 24 17 15 16 13 12 19 24 26 26 24 23 24 25 25 25 24 23 25 27 26 26 28 28 26 26 27 29 30 30 31 30 30 29 29 28 28 27 26 25 24 24 26 29 32 34 35 33 32 30 30 29 29 28 28 28 30 31 31
21 24 26 28 29 26 20 16 13 11 14 17 18 20 21 22 23 22 23 23 22 21 22 23 21 21 23 25 26 28 30 31 31 32 32 31 31 30 29 29 29 28 28 27 26 25 25 27 30 34 35 34 33 32 32 31 31 30 30 30 30 31 32
23 26 26 26 31 33 27 21 17 13 11 14 17 18 20 23 21 18 18 19 20 21 21 22 23 24 26 28 29 31 32 31 31 31 32 32 31 31 30 29 28 28 28 28 28 28 27 28 30 34 35 35 33 33 33 33 33 32 32 31 31 32 32
26 28 28 26 29 33 32 27 20 13 8 13 17 19 22 25 22 16 16 18 22 24 24 26 28 29 31 32 32 32 33 32 31 31 31 31 31 31 30 29 28 27 27 28 29 29 29 29 30 32 33 33 32 32 32 32 31 31 30 30 31 32 32
28 30 29 26 28 33 34 27 19 14 10 12 15 17 22 27 25 18 14 16 21 23 24 26 28 30 33 33 32 32 33 33 32 30 29 30 30 30 29 28 27 26 26 27 28 29 28 28 28 29 29 29 29 29 29 30 29 29 29 29 29 30 31
31 31 30 30 32 35 34 27 20 18 17 14 14 15 18 25 28 20 14 15 18 20 21 24 26 27 31 32 30 30 31 32 31 30 29 28 28 28 29 28 26 25 24 24 25 25 25 25 26 27 27 27 28 28 29 29 29 29 30 30 31 31 32
33 31 31 33 36 38 37 31 24 23 22 17 16 14 17 22 28 22 15 15 18 19 20 21 22 23 25 27 26 26 27 29 29 28 27 26 25 25 26 25 24 23 22 22 22 22 22 23 24 24 25 26 26 27 28 28 29 30 31 31 32 33 35
29 31 31 33 35 37 38 34 29 28 26 19 16 16 18 22 28 26 18 15 16 18 19 19 20 20 21 21 21 21 22 24 25 25 24 23 22 22 22 21 21 20 20 20 21 21 21 21 21 22 23 23 24 25 26 27 28 29 30 31 33 34 36
Wind_Direction
228 228 226 221 214 211 211 208 210 218 220 218 222 244 227 225 265 232 216 235 246 254 261 253 245 250 253 254 255 252 249 248 250 255 256 257 261 256 249 246 242 238 233 230 230 229 227 224 221 221 222 221 222 223 224 225 224 225 226 226 226 226 225
227 227 228 225 220 217 209 204 207 211 217 221 222 233 233 223 250 239 223 242 248 247 259 260 252 249 249 251 254 254 252 250 249 252 254 257 255 250 253 259 260 256 245 235 232 230 229 227 224 223 223 224 226 226 227 227 226 228 229 229 229 229 229
228 223 220 218 220 223 220 218 214 203 201 206 206 214 231 219 234 250 228 242 246 236 238 249 254 252 251 252 254 255 255 252 248 247 250 253 249 249 259 265 261 254 241 231 230 230 231 230 228 226 223 224 226 228 230 230 229 230 232 234 234 233 232
221 214 207 203 207 215 221 225 219 206 208 202 197 204 212 209 224 250 236 235 249 250 250 250 251 251 249 250 253 255 256 254 252 248 247 248 247 248 256 260 254 247 243 241 234 230 230 231 230 229 226 224 224 225 230 232 232 231 231 233 235 235 235
206 205 203 202 203 206 210 212 204 202 210 206 201 211 213 210 223 234 240 252 256 262 265 259 255 252 249 251 254 256 257 257 255 251 247 245 244 247 252 256 258 260 267 270 256 240 234 232 230 229 229 228 225 224 226 230 233 234 234 234 234 234 235
201 206 208 210 213 214 212 209 204 204 205 195 190 212 213 216 226 217 229 270 260 223 219 241 226 237 250 256 256 254 255 254 253 250 245 243 242 244 249 254 265 275 280 284 271 252 243 237 231 228 229 230 228 227 226 227 231 233 235 236 236 235 234
203 209 214 214 218 222 220 219 216 212 208 200 197 208 208 209 222 229 240 271 264 253 260 263 256 252 260 268 262 251 247 246 244 243 241 240 240 243 248 254 264 273 275 282 280 256 243 240 235 231 230 229 228 228 227 226 229 232 234 236 237 237 237
209 209 214 216 219 221 220 222 220 214 210 209 212 221 219 209 210 212 224 253 251 256 290 277 235 242 260 277 276 259 253 247 241 237 234 235 239 241 244 250 256 262 268 277 282 260 241 236 233 232 231 229 227 227 227 227 229 231 233 236 236 237 237
210 208 215 217 218 220 219 220 220 216 216 217 219 223 225 222 214 208 215 238 227 208 204 153 164 246 262 271 267 267 269 253 241 235 232 235 239 236 235 242 250 255 262 273 278 259 236 228 226 226 226 224 223 224 225 227 228 230 231 234 234 234 235
203 201 209 209 207 212 216 219 221 220 219 218 219 222 220 221 220 215 219 227 215 207 222 230 247 259 267 266 263 275 277 271 264 246 232 234 237 233 235 246 254 257 261 265 269 265 242 227 225 224 221 220 219 219 221 223 226 228 229 231 231 230 230
213 189 188 201 208 213 212 212 215 217 217 216 219 222 221 220 221 223 228 232 235 237 236 238 248 253 259 259 262 270 262 278 306 283 247 239 238 236 239 248 256 260 262 260 262 272 256 231 227 225 222 220 218 217 218 219 222 225 225 226 227 226 226
220 204 189 197 211 219 220 216 211 208 209 213 216 219 223 224 223 229 235 237 240 243 242 244 248 250 254 261 272 269 252 265 302 288 257 251 249 243 241 245 251 256 260 258 258 267 264 236 228 228 224 221 219 218 218 219 221 222 221 222 222 222 223
219 209 202 205 214 220 226 225 220 215 211 211 216 219 220 224 227 235 242 243 245 248 250 252 253 253 255 259 265 252 239 254 278 276 263 268 274 266 254 249 250 252 255 256 255 261 264 239 225 226 225 222 220 219 219 220 220 220 219 219 220 222 223
227 208 206 223 232 235 234 230 226 225 221 220 223 223 221 224 231 236 241 247 251 252 256 260 261 263 263 261 258 250 246 258 272 272 268 274 277 270 257 247 247 249 250 249 251 256 259 243 223 221 223 223 221 220 221 221 220 219 218 217 218 221 225
251 227 217 233 245 251 250 241 232 229 228 228 231 231 227 228 235 237 239 245 250 251 254 259 263 267 268 266 264 261 259 265 271 268 266 269 267 260 258 250 247 251 245 241 245 253 257 251 234 224 222 222 222 222 222 222 222 221 219 219 219 222 225
269 252 245 250 261 270 266 252 238 231 233 235 237 237 235 236 240 241 242 248 252 252 255 258 260 264 268 270 270 268 267 269 269 267 265 266 266 265 270 268 256 250 246 240 240 248 255 253 243 233 225 221 220 222 224 223 223 223 222 221 222 224 227
276 264 263 274 289 288 268 250 241 236 237 240 242 242 242 243 245 246 249 254 254 254 258 261 262 263 265 268 271 273 275 274 271 270 268 267 268 270 275 276 262 247 246 242 236 241 250 251 247 242 232 223 218 219 221 222 222 222 222 222 224 226 228
275 272 277 289 291 274 243 230 235 237 240 244 245 247 249 248 249 251 253 253 252 253 258 261 264 264 263 266 270 272 274 274 272 271 270 270 273 273 275 277 265 248 245 241 233 236 244 247 247 244 234 228 222 217 216 220 222 222 221 221 223 226 229
267 281 282 281 264 246 219 209 222 229 238 246 247 250 252 251 253 255 254 251 249 248 251 255 262 267 263 263 265 265 265 266 268 269 269 270 272 272 271 273 262 246 241 237 230 233 240 243 247 246 236 229 228 223 218 219 223 226 225 224 225 227 229
244 257 242 232 252 247 209 213 235 241 243 253 254 250 247 246 250 252 253 253 251 249 251 254 258 262 262 259 258 256 255 256 260 265 267 268 270 268 266 266 255 241 237 234 230 234 239 239 242 245 236 225 226 228 224 222 223 225 226 227 227 229 231
224 227 236 247 272 274 233 224 242 257 252 258 266 263 251 241 242 245 247 250 251 251 255 258 257 257 259 258 252 249 251 254 257 262 264 264 266 264 262 261 249 236 233 235 234 236 238 234 234 237 231 222 222 226 226 225 225 225 225 225 227 230 233
222 226 245 255 263 264 247 237 240 255 261 263 276 286 273 253 246 246 245 243 244 248 255 259 258 255 255 254 249 244 252 258 261 264 263 260 259 258 258 258 248 235 231 234 237 237 234 231 229 230 228 223 222 225 228 228 227 227 226 225 227 230 232
224 220 231 241 241 254 260 244 242 249 256 268 293 302 284 261 254 252 249 248 247 247 248 253 255 252 251 252 248 243 253 262 268 271 268 260 255 253 254 257 250 238 232 233 238 237 232 230 230 229 229 227 225 228 232 234 234 234 233 232 232 232 231
227 224 232 245 248 249 241 234 236 239 249 275 295 295 273 260 258 255 252 250 249 248 246 246 248 250 253 254 252 246 250 258 266 274 274 264 255 252 253 255 253 245 238 237 240 239 237 239 239 235 233 231 229 230 234 237 242 244 243 241 239 234 231
226 228 236 247 254 253 246 243 245 248 257 271 268 252 250 266 263 260 257 251 248 246 244 243 245 251 257 258 253 247 247 252 259 266 272 269 260 256 254 253 254 253 248 243 242 242 244 248 248 244 241 237 234 233 234 238 242 245 246 243 239 236 232
225 228 235 250 261 258 252 250 251 252 254 256 255 260 271 274 268 266 262 253 249 248 246 244 245 249 255 257 252 246 245 248 253 258 263 265 262 258 256 253 254 257 255 248 243 241 244 247 246 244 243 241 238 237 236 238 240 242 244 243 239 236 233
223 225 228 242 255 255 254 252 250 250 250 251 257 267 277 278 273 267 259 252 249 247 245 245 245 245 249 251 248 245 244 245 250 253 255 255 256 256 255 253 253 257 257 252 245 240 240 241 240 240 240 239 240 241 239 239 240 240 241 241 238 235 233
219 222 221 224 229 234 237 231 236 245 250 252 258 267 276 280 276 266 255 249 246 244 242 242 242 240 242 244 244 244 244 244 246 247 245 244 245 247 250 251 252 255 257 256 249 241 238 237 236 235 235 236 237 239 241 242 242 242 242 241 239 237 235
224 227 228 224 219 209 206 212 219 238 249 251 256 264 273 281 276 263 252 245 241 238 236 235 236 236 236 240 242 241 240 239 237 235 234 234 234 237 241 246 249 253 256 256 250 243 239 238 235 233 232 233 235 237 238 240 242 243 244 245 244 242 238
244 241 235 226 214 203 209 214 211 229 247 252 258 264 271 281 277 261 248 241 235 231 230 228 230 231 231 233 232 226 223 224 224 223 224 225 227 229 233 237 242 246 249 252 251 246 243 241 237 232 231 232 235 237 238 239 241 242 243 246 248 246 242
262 254 242 232 223 216 216 218 213 225 246 254 259 263 270 280 275 253 236 232 226 220 220 217 213 213 214 215 214 210 208 209 212 214 216 218 220 223 225 227 231 235 239 244 247 247 247 245 240 234 233 234 235 237 239 239 240 242 243 245 247 248 246
268 259 246 236 227 220 219 225 225 226 248 259 257 256 263 271 263 234 209 205 201 194 192 190 188 190 193 196 200 202 202 202 203 206 209 212 214 216 217 218 220 223 227 233 238 242 243 243 241 238 237 237 238 239 241 243 244 245 246 247 248 248 248
271 258 245 237 232 225 224 229 227 217 244 271 263 255 260 265 252 216 181 175 177 175 174 176 179 183 184 186 190 194 197 198 198 200 203 206 208 210 211 213 215 217 221 225 230 234 235 235 235 236 236 237 239 240 242 244 246 247 248 248 249 250 250
265 252 242 242 241 231 223 223 219 206 223 266 264 246 253 261 249 216 178 168 172 173 173 175 177 179 181 181 183 188 192 194 194 196 198 201 205 207 208 210 212 215 218 222 225 228 229 230 231 232 234 236 238 240 243 245 246 248 250 251 252 253 253
257 247 241 241 241 232 222 219 219 210 212 243 257 232 231 247 243 218 179 166 170 172 174 175 174 176 178 179 180 184 189 192 193 194 195 197 200 203 205 207 210 212 216 221 224 227 229 231 232 234 236 239 241 243 245 248 250 252 253 255 256 257 257
256 249 242 239 238 232 225 224 225 216 209 228 251 228 204 221 229 214 181 166 169 168 169 169 168 170 172 173 174 177 182 188 192 193 193 195 197 201 203 205 208 210 215 220 224 228 232 235 238 241 243 245 248 250 252 254 255 256 256 257 257 257 258
259 251 242 239 236 232 228 228 227 222 213 214 234 224 192 195 211 207 181 161 163 163 161 159 158 160 161 161 163 166 171 179 184 187 188 189 191 196 201 205 208 212 216 220 224 228 232 236 240 244 247 250 253 255 256 257 257 257 257 256 256 256 257